When you browse on this site, cookies collect data to enhance your experience and personalize the content and advertising you see.
Visit our Privacy Policy to learn more. By continuing to use the site, you agree to this use of cookies and data.

Previsão horária em Zalaegerszeg

Hoje, 7 Julho, Terça-feira

Tempo Temperatura Precipitação Vento Pressão Humidade
00:00 +14°C° 2.4 mm 7 m/s 747 mmHg 88%
01:00 +12°C° 0 mm 7 m/s 748 mmHg 91%
02:00 +13°C° 2.5 mm 6 m/s 748 mmHg 93%
03:00 +13°C° 2.5 mm 5 m/s 748 mmHg 94%
04:00 +13°C° 2.5 mm 3 m/s 749 mmHg 95%
05:00 +13°C° 0.3 mm 4 m/s 749 mmHg 91%
06:00 +14°C° 0.3 mm 4 m/s 750 mmHg 87%
07:00 +16°C° 0 mm 3 m/s 750 mmHg 84%
08:00 +17°C° 0.1 mm 4 m/s 750 mmHg 74%
09:00 +19°C° 0.1 mm 5 m/s 750 mmHg 64%
10:00 +20°C° 0.1 mm 6 m/s 750 mmHg 54%
11:00 +21°C° 0 mm 5 m/s 750 mmHg 52%
12:00 +21°C° 0 mm 5 m/s 749 mmHg 50%
13:00 +22°C° 0 mm 5 m/s 749 mmHg 47%
14:00 +22°C° 0 mm 5 m/s 749 mmHg 48%
15:00 +22°C° 0 mm 5 m/s 749 mmHg 48%
16:00 +22°C° 0 mm 4 m/s 748 mmHg 49%
17:00 +21°C° 0 mm 3 m/s 749 mmHg 55%
18:00 +20°C° 0 mm 2 m/s 749 mmHg 62%
19:00 +20°C° 0 mm 1 m/s 749 mmHg 68%
20:00 +18°C° 0 mm 1 m/s 749 mmHg 71%
21:00 +16°C° 0 mm 1 m/s 749 mmHg 73%
22:00 +14°C° 0 mm 0 m/s 749 mmHg 75%
23:00 +14°C° 0 mm 1 m/s 750 mmHg 75%

Amanhã, 8 Julho, Quarta-feira

Tempo Temperatura Precipitação Vento Pressão Humidade
00:00 +14°C° 0 mm 1 m/s 750 mmHg 76%
01:00 +14°C° 0 mm 1 m/s 750 mmHg 76%
02:00 +13°C° 0 mm 1 m/s 750 mmHg 78%
03:00 +13°C° 0 mm 1 m/s 749 mmHg 79%
04:00 +12°C° 0 mm 0 m/s 749 mmHg 81%
05:00 +14°C° 0 mm 1 m/s 749 mmHg 76%
06:00 +16°C° 0 mm 1 m/s 750 mmHg 71%
07:00 +19°C° 0 mm 1 m/s 750 mmHg 67%
08:00 +19°C° 0 mm 2 m/s 750 mmHg 61%
09:00 +21°C° 0 mm 2 m/s 750 mmHg 56%
10:00 +24°C° 0 mm 2 m/s 750 mmHg 50%
11:00 +25°C° 0 mm 2 m/s 749 mmHg 48%
12:00 +25°C° 0 mm 3 m/s 749 mmHg 47%
13:00 +26°C° 0 mm 3 m/s 748 mmHg 45%
14:00 +26°C° 0 mm 3 m/s 748 mmHg 45%
15:00 +27°C° 0 mm 3 m/s 748 mmHg 46%
16:00 +27°C° 0 mm 3 m/s 748 mmHg 46%
17:00 +25°C° 0 mm 2 m/s 748 mmHg 52%
18:00 +24°C° 0 mm 2 m/s 748 mmHg 59%
19:00 +22°C° 0 mm 1 m/s 748 mmHg 65%
20:00 +21°C° 0 mm 1 m/s 748 mmHg 66%
21:00 +20°C° 0 mm 1 m/s 749 mmHg 67%
22:00 +19°C° 0 mm 1 m/s 749 mmHg 68%
23:00 +18°C° 0 mm 1 m/s 749 mmHg 70%

Depois de amanhã, 9 Julho, Quinta-feira

Tempo Temperatura Precipitação Vento Pressão Humidade
00:00 +16°C° 0 mm 0 m/s 749 mmHg 71%
01:00 +15°C° 0 mm 0 m/s 750 mmHg 72%
02:00 +15°C° 0 mm 0 m/s 750 mmHg 74%
03:00 +15°C° 0 mm 0 m/s 750 mmHg 75%
04:00 +14°C° 0 mm 0 m/s 749 mmHg 77%
05:00 +16°C° 0 mm 0 m/s 750 mmHg 73%
06:00 +18°C° 0 mm 0 m/s 750 mmHg 70%
07:00 +21°C° 0 mm 1 m/s 750 mmHg 66%
08:00 +23°C° 0 mm 1 m/s 750 mmHg 62%
09:00 +24°C° 0 mm 1 m/s 750 mmHg 57%
10:00 +26°C° 0 mm 1 m/s 751 mmHg 52%
11:00 +27°C° 0 mm 1 m/s 750 mmHg 48%
12:00 +28°C° 0 mm 2 m/s 750 mmHg 44%
13:00 +30°C° 0 mm 2 m/s 750 mmHg 40%
14:00 +30°C° 0 mm 2 m/s 749 mmHg 40%
15:00 +30°C° 0 mm 2 m/s 749 mmHg 40%
16:00 +30°C° 0 mm 2 m/s 749 mmHg 40%
17:00 +29°C° 0 mm 2 m/s 749 mmHg 47%
18:00 +27°C° 0 mm 2 m/s 749 mmHg 55%
19:00 +25°C° 0 mm 1 m/s 748 mmHg 62%
20:00 +24°C° 0 mm 2 m/s 749 mmHg 64%
21:00 +23°C° 0 mm 2 m/s 749 mmHg 66%
22:00 +21°C° 0 mm 2 m/s 749 mmHg 67%
23:00 +20°C° 0 mm 2 m/s 749 mmHg 70%

10 Julho, Sexta-feira

Tempo Temperatura Precipitação Vento Pressão Humidade
00:00 +20°C° 0 mm 2 m/s 749 mmHg 72%
01:00 +20°C° 0 mm 1 m/s 749 mmHg 75%
02:00 +20°C° 0 mm 1 m/s 749 mmHg 78%
03:00 +19°C° 0 mm 1 m/s 748 mmHg 81%
04:00 +18°C° 0 mm 1 m/s 748 mmHg 84%
05:00 +19°C° 0 mm 2 m/s 748 mmHg 80%
06:00 +20°C° 0 mm 2 m/s 748 mmHg 75%
07:00 +23°C° 0 mm 2 m/s 748 mmHg 71%
08:00 +25°C° 0 mm 2 m/s 748 mmHg 65%
09:00 +26°C° 0 mm 3 m/s 748 mmHg 59%
10:00 +28°C° 0 mm 3 m/s 748 mmHg 53%
11:00 +29°C° 0 mm 3 m/s 748 mmHg 49%
12:00 +31°C° 0 mm 3 m/s 747 mmHg 46%
13:00 +33°C° 0 mm 3 m/s 747 mmHg 43%
14:00 +33°C° 0 mm 3 m/s 746 mmHg 43%
15:00 +33°C° 0 mm 3 m/s 746 mmHg 44%
16:00 +33°C° 0 mm 3 m/s 745 mmHg 44%
17:00 +30°C° 0 mm 3 m/s 745 mmHg 51%
18:00 +29°C° 0 mm 2 m/s 745 mmHg 57%
19:00 +27°C° 0 mm 2 m/s 745 mmHg 64%
20:00 +26°C° 0 mm 2 m/s 745 mmHg 67%
21:00 +24°C° 0 mm 2 m/s 745 mmHg 70%
22:00 +23°C° 0 mm 2 m/s 746 mmHg 74%
23:00 +21°C° 0 mm 2 m/s 746 mmHg 77%

11 Julho, Sábado

Tempo Temperatura Precipitação Vento Pressão Humidade
00:00 +22°C° 0 mm 1 m/s 746 mmHg 81%
01:00 +21°C° 0 mm 1 m/s 746 mmHg 85%
02:00 +20°C° 0 mm 3 m/s 746 mmHg 82%
03:00 +20°C° 0 mm 5 m/s 747 mmHg 79%
04:00 +21°C° 0 mm 7 m/s 747 mmHg 76%
05:00 +21°C° 0 mm 7 m/s 747 mmHg 73%
06:00 +21°C° 0 mm 7 m/s 748 mmHg 71%
07:00 +22°C° 0 mm 7 m/s 748 mmHg 68%
08:00 +22°C° 0 mm 7 m/s 748 mmHg 65%
09:00 +23°C° 0 mm 7 m/s 749 mmHg 62%
10:00 +23°C° 0 mm 7 m/s 749 mmHg 59%
11:00 +23°C° 0 mm 7 m/s 749 mmHg 59%
12:00 +24°C° 0 mm 7 m/s 749 mmHg 59%
13:00 +24°C° 0 mm 7 m/s 749 mmHg 59%
14:00 +23°C° 0 mm 7 m/s 749 mmHg 61%
15:00 +22°C° 0 mm 7 m/s 749 mmHg 63%
16:00 +21°C° 0 mm 7 m/s 749 mmHg 66%
17:00 +20°C° 0 mm 7 m/s 750 mmHg 67%
18:00 +18°C° 0 mm 7 m/s 750 mmHg 69%
19:00 +17°C° 0 mm 7 m/s 751 mmHg 70%
20:00 +16°C° 0.2 mm 7 m/s 751 mmHg 75%
21:00 +16°C° 0.2 mm 6 m/s 752 mmHg 81%
22:00 +15°C° 0.2 mm 6 m/s 752 mmHg 86%
23:00 +14°C° 0.4 mm 5 m/s 752 mmHg 88%

12 Julho, Domingo

Tempo Temperatura Precipitação Vento Pressão Humidade
00:00 +14°C° 0.4 mm 4 m/s 752 mmHg 90%
01:00 +13°C° 0.4 mm 3 m/s 752 mmHg 93%
02:00 +13°C° 0.1 mm 3 m/s 752 mmHg 93%
03:00 +14°C° 0.1 mm 2 m/s 752 mmHg 93%
04:00 +14°C° 0.1 mm 2 m/s 752 mmHg 94%
05:00 +14°C° 0 mm 3 m/s 752 mmHg 89%
06:00 +15°C° 0 mm 4 m/s 752 mmHg 85%
07:00 +16°C° 0 mm 5 m/s 753 mmHg 81%
08:00 +19°C° 0 mm 5 m/s 753 mmHg 71%
09:00 +21°C° 0 mm 5 m/s 753 mmHg 61%
10:00 +22°C° 0 mm 6 m/s 753 mmHg 50%
11:00 +23°C° 0 mm 6 m/s 753 mmHg 48%
12:00 +23°C° 0 mm 6 m/s 753 mmHg 45%
13:00 +24°C° 0 mm 6 m/s 753 mmHg 43%
14:00 +25°C° 0 mm 5 m/s 752 mmHg 43%
15:00 +25°C° 0 mm 5 m/s 752 mmHg 43%
16:00 +25°C° 0 mm 5 m/s 752 mmHg 43%
17:00 +22°C° 0 mm 4 m/s 752 mmHg 49%
18:00 +21°C° 0 mm 4 m/s 752 mmHg 56%
19:00 +19°C° 0 mm 3 m/s 752 mmHg 62%
20:00 +18°C° 0 mm 3 m/s 753 mmHg 65%
21:00 +17°C° 0 mm 2 m/s 753 mmHg 68%
22:00 +15°C° 0 mm 2 m/s 753 mmHg 71%
23:00 +15°C° 0 mm 2 m/s 753 mmHg 73%
Mostrar mais